CKS295 PANC-CYHM

Flight info

Callsign CKS295
Flight time 5h 39m
Altitude 33000
Route NOEND4 NOEND DCT TMSON NCA13 JAGIT DCT 60N130W DCT MEVMA DCT OVATU/N0482F350 DCT YMM DCT 52N100W DCT KRANG DCT ESC DCT AVSOX AVSOX3
Aircraft B77L/H-SDE2E3FGHIJ1J4J5M1P2RWXYZ/LB1D1G1

Departure

Time 2026-04-26 09:58
Airport Ted Stevens Anchorage International Airport (PANC)

Arrival

Time 2026-04-26 15:38
Airport John C. Munro Hamilton International Airport (CYHM)
Time Latitude Longitude Altitude Speed Heading
2026-04-26 09:09 61.17518 -149.99152 110 ft 0 kts 71°
2026-04-26 09:52 61.17520 -149.99144 110 ft 4 kts 71°
2026-04-26 09:53 61.17524 -149.99033 107 ft 10 kts 110°
2026-04-26 09:53 61.17462 -149.98948 110 ft 11 kts 160°
2026-04-26 09:53 61.17387 -149.98891 110 ft 11 kts 159°
2026-04-26 09:53 61.17313 -149.98833 114 ft 11 kts 160°
2026-04-26 09:54 61.17238 -149.98777 116 ft 11 kts 160°
2026-04-26 09:54 61.17164 -149.98733 114 ft 11 kts 177°
2026-04-26 09:54 61.17119 -149.98834 120 ft 11 kts 264°
2026-04-26 09:54 61.17122 -149.98985 120 ft 11 kts 274°
2026-04-26 09:55 61.17125 -149.99128 122 ft 10 kts 270°
2026-04-26 09:55 61.17125 -149.99269 123 ft 10 kts 270°
2026-04-26 09:55 61.17125 -149.99409 126 ft 10 kts 270°
2026-04-26 09:55 61.17124 -149.99550 129 ft 10 kts 269°
2026-04-26 09:56 61.17124 -149.99690 132 ft 10 kts 269°
2026-04-26 09:56 61.17139 -149.99823 129 ft 10 kts 307°
2026-04-26 09:56 61.17196 -149.99895 126 ft 10 kts 341°
2026-04-26 09:56 61.17223 -149.99912 134 ft 0 kts 344°
2026-04-26 09:57 61.17224 -149.99912 134 ft 0 kts 344°
2026-04-26 09:57 61.17285 -149.99948 127 ft 25 kts 344°
2026-04-26 09:58 61.17679 -150.00171 125 ft 95 kts 345°
2026-04-26 09:58 61.18533 -150.00648 129 ft 157 kts 345°
2026-04-26 09:58 61.19720 -150.01312 328 ft 185 kts 345°
2026-04-26 09:58 61.20935 -150.02038 993 ft 181 kts 339°
2026-04-26 09:59 61.22056 -150.03357 1430 ft 191 kts 322°
2026-04-26 09:59 61.23138 -150.05103 1746 ft 203 kts 323°
2026-04-26 09:59 61.24333 -150.06933 1986 ft 223 kts 323°
2026-04-26 09:59 61.25613 -150.08883 2456 ft 233 kts 323°
2026-04-26 10:00 61.26929 -150.10893 3056 ft 236 kts 323°
2026-04-26 10:00 61.28315 -150.12709 3624 ft 237 kts 342°
2026-04-26 10:00 61.29935 -150.12909 4119 ft 240 kts 18°
2026-04-26 10:00 61.31347 -150.11161 4674 ft 238 kts 46°
2026-04-26 10:01 61.32502 -150.08648 5165 ft 243 kts 47°
2026-04-26 10:01 61.33677 -150.06100 5781 ft 245 kts 47°
2026-04-26 10:01 61.34838 -150.03502 6386 ft 244 kts 54°
2026-04-26 10:01 61.35504 -150.00263 6781 ft 248 kts 87°
2026-04-26 10:02 61.35197 -149.96721 7123 ft 259 kts 120°
2026-04-26 10:02 61.34055 -149.93762 7438 ft 267 kts 134°
2026-04-26 10:02 61.32759 -149.90925 7935 ft 274 kts 133°
2026-04-26 10:02 61.31445 -149.88010 8580 ft 276 kts 133°
2026-04-26 10:03 61.30124 -149.85079 9231 ft 279 kts 133°
2026-04-26 10:03 61.28792 -149.82129 9862 ft 281 kts 134°
2026-04-26 10:03 61.27446 -149.79142 10401 ft 287 kts 133°
2026-04-26 10:03 61.26337 -149.75563 10508 ft 306 kts 109°
2026-04-26 10:04 61.25835 -149.71153 10656 ft 323 kts 104°
2026-04-26 10:04 61.25293 -149.66531 10853 ft 344 kts 106°
2026-04-26 10:04 61.24663 -149.61575 11176 ft 360 kts 106°
2026-04-26 10:04 61.24086 -149.56450 11761 ft 370 kts 103°
2026-04-26 10:05 61.23584 -149.51169 12539 ft 374 kts 103°
2026-04-26 10:05 61.23077 -149.45848 13370 ft 376 kts 103°
2026-04-26 10:05 61.22551 -149.40507 14162 ft 380 kts 104°
2026-04-26 10:05 61.22015 -149.35107 14909 ft 383 kts 104°
2026-04-26 10:06 61.21490 -149.29655 15618 ft 387 kts 103°
2026-04-26 10:06 61.20964 -149.24143 16303 ft 391 kts 104°
2026-04-26 10:06 61.20432 -149.18579 17025 ft 395 kts 104°
2026-04-26 10:06 61.19891 -149.12970 17725 ft 399 kts 104°
2026-04-26 10:07 61.19342 -149.07301 18368 ft 402 kts 104°
2026-04-26 10:07 61.18787 -149.01589 19003 ft 407 kts 104°
2026-04-26 10:07 61.18218 -148.95793 19549 ft 412 kts 104°
2026-04-26 10:07 61.17638 -148.89930 20088 ft 417 kts 104°
2026-04-26 10:08 61.17051 -148.84012 20649 ft 421 kts 104°
2026-04-26 10:08 61.16466 -148.78122 21168 ft 425 kts 104°
2026-04-26 10:08 61.15864 -148.72087 21695 ft 429 kts 104°
2026-04-26 10:08 61.15256 -148.66016 22206 ft 433 kts 104°
2026-04-26 10:09 61.14639 -148.59881 22705 ft 437 kts 105°
2026-04-26 10:09 61.14217 -148.55715 23046 ft 439 kts 105°
2026-04-26 10:09 61.13381 -148.47477 23693 ft 445 kts 104°
2026-04-26 10:09 61.12948 -148.41104 24112 ft 451 kts 97°
2026-04-26 10:10 61.12790 -148.34578 24543 ft 456 kts 94°
2026-04-26 10:10 61.12750 -148.27978 24984 ft 461 kts 93°
2026-04-26 10:10 61.12735 -148.21312 25417 ft 466 kts 93°
2026-04-26 10:10 61.12703 -148.14585 25836 ft 469 kts 93°
2026-04-26 10:11 61.12640 -148.07877 26249 ft 473 kts 94°
2026-04-26 10:11 61.12549 -148.01039 26630 ft 477 kts 94°
2026-04-26 10:11 61.12436 -147.94141 27008 ft 481 kts 95°
2026-04-26 10:11 61.12308 -147.87225 27536 ft 481 kts 95°
2026-04-26 10:12 61.12172 -147.80268 27974 ft 484 kts 95°
2026-04-26 10:12 61.12029 -147.73267 28213 ft 490 kts 95°
2026-04-26 10:12 61.11879 -147.66167 28485 ft 495 kts 95°
2026-04-26 10:12 61.11728 -147.59020 28853 ft 498 kts 95°
2026-04-26 10:13 61.11573 -147.51842 29195 ft 501 kts 95°
2026-04-26 10:13 61.11419 -147.44627 29512 ft 504 kts 95°
2026-04-26 10:13 61.11256 -147.37361 29775 ft 508 kts 95°
2026-04-26 10:13 61.11089 -147.30062 30151 ft 508 kts 95°
2026-04-26 10:14 61.10918 -147.22767 30589 ft 507 kts 95°
2026-04-26 10:14 61.10742 -147.15487 30979 ft 508 kts 95°
2026-04-26 10:14 61.10561 -147.08174 31300 ft 510 kts 95°
2026-04-26 10:14 61.10379 -147.00941 31663 ft 510 kts 95°
2026-04-26 10:15 61.10192 -146.93604 32021 ft 510 kts 95°
2026-04-26 10:15 61.10001 -146.86265 32353 ft 511 kts 95°
2026-04-26 10:15 61.09805 -146.78933 32698 ft 511 kts 95°
2026-04-26 10:15 61.09604 -146.71619 33060 ft 510 kts 95°
2026-04-26 10:16 61.09398 -146.64262 33172 ft 515 kts 95°
2026-04-26 10:16 61.09188 -146.56857 33237 ft 516 kts 95°
2026-04-26 10:16 61.08832 -146.44574 33225 ft 512 kts 95°
2026-04-26 10:17 61.08392 -146.29958 33233 ft 508 kts 95°
2026-04-26 10:17 61.07936 -146.15392 33245 ft 507 kts 95°
2026-04-26 10:18 61.07466 -146.00851 33249 ft 508 kts 96°
2026-04-26 10:18 61.06981 -145.86302 33242 ft 508 kts 96°
2026-04-26 10:19 61.06483 -145.71836 33238 ft 506 kts 96°
2026-04-26 10:19 61.05967 -145.57326 33222 ft 505 kts 96°
2026-04-26 10:20 61.05441 -145.42938 33208 ft 504 kts 96°
2026-04-26 10:20 61.04898 -145.28528 33214 ft 503 kts 97°
2026-04-26 10:21 61.04345 -145.14124 33211 ft 503 kts 96°
2026-04-26 10:21 61.04160 -144.99673 33206 ft 504 kts 93°
2026-04-26 10:22 61.04101 -144.85196 33163 ft 505 kts 93°
2026-04-26 10:22 61.04023 -144.70717 33156 ft 505 kts 93°
2026-04-26 10:23 61.03912 -144.56328 33151 ft 504 kts 94°
2026-04-26 10:23 61.03772 -144.41868 33144 ft 503 kts 94°
2026-04-26 10:24 61.03615 -144.27463 33150 ft 502 kts 94°
2026-04-26 10:24 61.03447 -144.13056 33135 ft 502 kts 94°
2026-04-26 10:25 61.03263 -143.98659 33134 ft 501 kts 94°
2026-04-26 10:25 61.03068 -143.84397 33132 ft 500 kts 95°
2026-04-26 10:26 61.02857 -143.70098 33146 ft 499 kts 95°
2026-04-26 10:26 61.02629 -143.55800 33133 ft 498 kts 95°
2026-04-26 10:27 61.02385 -143.41539 33128 ft 497 kts 95°
2026-04-26 10:27 61.02132 -143.27291 33127 ft 496 kts 95°
2026-04-26 10:28 61.01862 -143.13149 33129 ft 496 kts 96°
2026-04-26 10:28 61.01576 -142.98911 33116 ft 496 kts 96°
2026-04-26 10:29 61.01275 -142.84708 33111 ft 495 kts 96°
2026-04-26 10:29 61.00960 -142.70548 33123 ft 494 kts 96°
2026-04-26 10:30 61.00629 -142.56376 33105 ft 495 kts 96°
2026-04-26 10:30 61.00284 -142.42219 33120 ft 495 kts 96°
2026-04-26 10:31 60.99928 -142.28137 33122 ft 496 kts 97°
2026-04-26 10:31 60.99552 -142.13925 33104 ft 497 kts 97°
2026-04-26 10:32 60.99160 -141.99697 33111 ft 498 kts 97°
2026-04-26 10:32 60.98754 -141.85452 33090 ft 497 kts 97°
2026-04-26 10:33 60.98336 -141.71278 33090 ft 495 kts 97°
2026-04-26 10:33 60.97903 -141.57129 33078 ft 493 kts 98°
2026-04-26 10:34 60.97457 -141.43143 33069 ft 492 kts 98°
2026-04-26 10:34 60.96998 -141.29094 33064 ft 491 kts 98°
2026-04-26 10:35 60.96523 -141.15055 33058 ft 490 kts 98°
2026-04-26 10:35 60.96040 -141.01056 33072 ft 490 kts 98°
2026-04-26 10:36 60.95463 -140.87125 33054 ft 489 kts 100°
2026-04-26 10:36 60.94800 -140.73167 33073 ft 490 kts 100°
2026-04-26 10:37 60.94127 -140.59172 33055 ft 492 kts 100°
2026-04-26 10:37 60.93446 -140.45158 33058 ft 492 kts 100°
2026-04-26 10:38 60.92759 -140.31150 33053 ft 493 kts 100°
2026-04-26 10:38 60.92059 -140.17146 33057 ft 492 kts 101°
2026-04-26 10:39 60.91351 -140.03289 33035 ft 490 kts 101°
2026-04-26 10:39 60.90624 -139.89368 33031 ft 489 kts 101°
2026-04-26 10:40 60.89887 -139.75511 33048 ft 488 kts 101°
2026-04-26 10:40 60.89136 -139.61701 33024 ft 486 kts 101°
2026-04-26 10:41 60.88371 -139.47915 33038 ft 486 kts 102°
2026-04-26 10:41 60.87595 -139.34127 33030 ft 487 kts 102°
2026-04-26 10:42 60.86796 -139.20294 33028 ft 488 kts 102°
2026-04-26 10:42 60.85982 -139.06426 33033 ft 489 kts 102°
2026-04-26 10:43 60.85169 -138.92660 33025 ft 488 kts 102°
2026-04-26 10:43 60.84327 -138.78835 33030 ft 488 kts 103°
2026-04-26 10:44 60.83478 -138.65055 33032 ft 486 kts 103°
2026-04-26 10:44 60.82616 -138.51309 33040 ft 487 kts 103°
2026-04-26 10:45 60.81737 -138.37532 33046 ft 488 kts 103°
2026-04-26 10:45 60.80838 -138.23723 33029 ft 490 kts 103°
2026-04-26 10:46 60.79929 -138.09908 33043 ft 489 kts 103°
2026-04-26 10:46 60.79009 -137.96146 33037 ft 488 kts 103°
2026-04-26 10:47 60.78072 -137.82381 33039 ft 488 kts 103°
2026-04-26 10:47 60.77128 -137.68732 33048 ft 488 kts 103°
2026-04-26 10:48 60.76162 -137.54986 33032 ft 489 kts 103°
2026-04-26 10:48 60.75183 -137.41230 33034 ft 489 kts 103°
2026-04-26 10:49 60.74187 -137.27476 33040 ft 489 kts 103°
2026-04-26 10:49 60.73175 -137.13723 33040 ft 490 kts 103°
2026-04-26 10:50 60.72324 -137.02276 33049 ft 490 kts 103°
2026-04-26 10:50 60.71111 -136.86189 33046 ft 491 kts 103°
2026-04-26 10:51 60.69524 -136.65525 33039 ft 492 kts 103°
2026-04-26 10:52 60.68448 -136.51758 33046 ft 492 kts 103°
2026-04-26 10:52 60.67354 -136.37971 33050 ft 493 kts 103°
2026-04-26 10:53 60.66247 -136.24181 33051 ft 493 kts 103°
2026-04-26 10:53 60.65121 -136.10375 33036 ft 494 kts 103°
2026-04-26 10:54 60.63411 -135.89745 33038 ft 494 kts 103°
2026-04-26 10:54 60.62251 -135.75954 33048 ft 494 kts 103°
2026-04-26 10:55 60.61072 -135.62135 33039 ft 495 kts 103°
2026-04-26 10:55 60.60079 -135.50618 33027 ft 495 kts 104°
2026-04-26 10:56 60.58669 -135.34482 33023 ft 496 kts 104°
2026-04-26 10:56 60.57455 -135.20756 33026 ft 496 kts 104°
2026-04-26 10:57 60.56217 -135.06954 33017 ft 495 kts 104°
2026-04-26 10:57 60.54969 -134.93189 33018 ft 495 kts 104°
2026-04-26 10:58 60.53706 -134.79449 33027 ft 495 kts 105°
2026-04-26 10:58 60.52425 -134.65688 33020 ft 495 kts 105°
2026-04-26 10:59 60.51133 -134.51937 33029 ft 495 kts 105°
2026-04-26 10:59 60.49826 -134.38197 33035 ft 496 kts 106°
2026-04-26 11:00 60.48501 -134.24464 33028 ft 496 kts 106°
2026-04-26 11:00 60.47167 -134.10737 33037 ft 497 kts 106°
2026-04-26 11:01 60.45823 -133.97096 33039 ft 497 kts 106°
2026-04-26 11:01 60.44453 -133.83341 33035 ft 498 kts 107°
2026-04-26 11:02 60.43073 -133.69629 33052 ft 497 kts 107°
2026-04-26 11:02 60.41675 -133.55901 33040 ft 497 kts 107°
2026-04-26 11:03 60.40266 -133.42206 33050 ft 497 kts 107°
2026-04-26 11:03 60.38844 -133.28538 33060 ft 497 kts 107°
2026-04-26 11:04 60.37650 -133.17183 33055 ft 496 kts 107°
2026-04-26 11:04 60.36200 -133.03527 33065 ft 496 kts 107°
2026-04-26 11:05 60.34734 -132.89856 33058 ft 500 kts 107°
2026-04-26 11:05 60.33247 -132.76124 33060 ft 502 kts 107°
2026-04-26 11:06 60.31739 -132.62331 33054 ft 503 kts 107°
2026-04-26 11:06 60.30228 -132.48666 33057 ft 502 kts 107°
2026-04-26 11:07 60.28690 -132.34918 33039 ft 502 kts 107°
2026-04-26 11:07 60.27144 -132.21233 33042 ft 501 kts 108°
2026-04-26 11:08 60.25589 -132.07565 33053 ft 501 kts 108°
2026-04-26 11:08 60.24016 -131.93891 33038 ft 501 kts 108°
2026-04-26 11:09 60.22427 -131.80242 33056 ft 501 kts 108°
2026-04-26 11:09 60.20835 -131.66696 33034 ft 501 kts 108°
2026-04-26 11:10 60.19221 -131.53073 33040 ft 501 kts 108°
2026-04-26 11:10 60.17589 -131.39435 33033 ft 501 kts 108°
2026-04-26 11:11 60.15945 -131.25838 33051 ft 501 kts 108°
2026-04-26 11:11 60.14288 -131.12224 33035 ft 502 kts 108°
2026-04-26 11:12 60.12622 -130.98709 33024 ft 502 kts 108°
2026-04-26 11:12 60.10932 -130.85125 33038 ft 502 kts 108°
2026-04-26 11:13 60.09224 -130.71527 33033 ft 503 kts 108°
2026-04-26 11:13 60.07504 -130.57922 33020 ft 503 kts 108°
2026-04-26 11:14 60.05770 -130.44341 33020 ft 504 kts 108°
2026-04-26 11:14 60.04022 -130.30764 33030 ft 504 kts 107°
2026-04-26 11:15 60.02256 -130.17184 33029 ft 504 kts 108°
2026-04-26 11:15 60.00479 -130.03614 33022 ft 504 kts 108°
2026-04-26 11:16 59.98722 -129.90061 33026 ft 504 kts 107°
2026-04-26 11:16 59.97022 -129.76482 33030 ft 504 kts 107°
2026-04-26 11:17 59.95331 -129.63023 33031 ft 504 kts 107°
2026-04-26 11:17 59.93602 -129.49454 33024 ft 504 kts 107°
2026-04-26 11:18 59.91856 -129.35943 33025 ft 503 kts 107°
2026-04-26 11:18 59.90097 -129.22445 33031 ft 503 kts 107°
2026-04-26 11:19 59.88334 -129.09043 33029 ft 502 kts 106°
2026-04-26 11:19 59.86549 -128.95596 33033 ft 502 kts 106°
2026-04-26 11:20 59.85056 -128.84430 33027 ft 502 kts 106°
2026-04-26 11:20 59.82942 -128.68755 33028 ft 501 kts 106°
2026-04-26 11:21 59.81120 -128.55387 33025 ft 501 kts 105°
2026-04-26 11:21 59.79299 -128.42131 33027 ft 501 kts 105°
2026-04-26 11:22 59.77453 -128.28796 33031 ft 501 kts 106°
2026-04-26 11:22 59.75587 -128.15453 33027 ft 501 kts 106°
2026-04-26 11:23 59.73712 -128.02135 33027 ft 502 kts 106°
2026-04-26 11:23 59.71832 -127.88886 33029 ft 502 kts 106°
2026-04-26 11:24 59.69925 -127.75555 33024 ft 502 kts 106°
2026-04-26 11:24 59.68008 -127.62271 33024 ft 502 kts 106°
2026-04-26 11:25 59.66077 -127.49014 33032 ft 501 kts 106°
2026-04-26 11:25 59.64133 -127.35767 33026 ft 501 kts 106°
2026-04-26 11:26 59.62183 -127.22571 33034 ft 500 kts 105°
2026-04-26 11:26 59.60218 -127.09381 33039 ft 501 kts 105°
2026-04-26 11:27 59.58239 -126.96211 33048 ft 500 kts 105°
2026-04-26 11:27 59.56261 -126.83162 33059 ft 500 kts 105°
2026-04-26 11:28 59.54253 -126.69993 33061 ft 500 kts 105°
2026-04-26 11:28 59.52235 -126.56871 33074 ft 499 kts 105°
2026-04-26 11:29 59.50207 -126.43779 33082 ft 499 kts 105°
2026-04-26 11:29 59.48181 -126.30811 33095 ft 499 kts 105°
2026-04-26 11:30 59.46469 -126.19929 33098 ft 499 kts 105°
2026-04-26 11:30 59.44055 -126.04681 33109 ft 499 kts 106°
2026-04-26 11:31 59.41991 -125.91758 33114 ft 499 kts 105°
2026-04-26 11:31 59.39901 -125.78765 33118 ft 499 kts 105°
2026-04-26 11:32 59.37798 -125.65786 33127 ft 499 kts 105°
2026-04-26 11:32 59.35682 -125.52829 33134 ft 498 kts 105°
2026-04-26 11:33 59.33550 -125.39882 33141 ft 498 kts 105°
2026-04-26 11:33 59.31425 -125.27055 33149 ft 498 kts 105°
2026-04-26 11:34 59.30344 -125.20576 33302 ft 501 kts 105°
2026-04-26 11:34 59.29265 -125.14108 33723 ft 499 kts 105°
2026-04-26 11:34 59.28185 -125.07662 34164 ft 496 kts 105°
2026-04-26 11:34 59.27108 -125.01268 34566 ft 494 kts 105°
2026-04-26 11:35 59.26032 -124.94905 34934 ft 492 kts 105°
2026-04-26 11:35 59.24955 -124.88552 35124 ft 494 kts 105°
2026-04-26 11:35 59.23149 -124.77921 35190 ft 497 kts 105°
2026-04-26 11:36 59.20593 -124.63049 35183 ft 491 kts 105°
2026-04-26 11:36 59.18413 -124.50457 35196 ft 488 kts 105°
2026-04-26 11:37 59.16237 -124.37930 35213 ft 488 kts 105°
2026-04-26 11:37 59.14055 -124.25470 35200 ft 488 kts 105°
2026-04-26 11:38 59.11851 -124.12974 35210 ft 489 kts 105°
2026-04-26 11:38 59.09625 -124.00436 35216 ft 489 kts 105°
2026-04-26 11:39 59.07388 -123.87926 35213 ft 490 kts 104°
2026-04-26 11:39 59.05137 -123.75430 35225 ft 490 kts 104°
2026-04-26 11:40 59.02875 -123.62932 35222 ft 491 kts 104°
2026-04-26 11:40 59.00604 -123.50487 35228 ft 491 kts 104°
2026-04-26 11:42 58.91369 -123.00662 35235 ft 490 kts 104°
2026-04-26 11:43 58.89030 -122.88242 35226 ft 490 kts 104°
2026-04-26 11:43 58.86700 -122.75935 35231 ft 490 kts 104°
2026-04-26 11:44 58.84350 -122.63589 35228 ft 489 kts 103°
2026-04-26 11:44 58.82670 -122.51018 35233 ft 479 kts 94°
2026-04-26 11:45 58.81509 -122.38400 35225 ft 479 kts 94°
2026-04-26 11:45 58.80320 -122.25787 35231 ft 480 kts 94°
2026-04-26 11:46 58.79091 -122.13125 35233 ft 480 kts 94°
2026-04-26 11:46 58.77833 -122.00470 35229 ft 479 kts 94°
2026-04-26 11:47 58.76574 -121.87930 35233 ft 479 kts 94°
2026-04-26 11:47 58.75295 -121.75308 35233 ft 480 kts 94°
2026-04-26 11:48 58.74006 -121.62709 35230 ft 479 kts 94°
2026-04-26 11:48 58.72706 -121.50121 35230 ft 479 kts 94°
2026-04-26 11:49 58.71394 -121.37561 35230 ft 478 kts 94°
2026-04-26 11:49 58.70079 -121.25113 35224 ft 478 kts 94°
2026-04-26 11:50 58.68747 -121.12583 35223 ft 478 kts 95°
2026-04-26 11:50 58.67403 -121.00094 35219 ft 477 kts 95°
2026-04-26 11:51 58.66047 -120.87624 35224 ft 477 kts 95°
2026-04-26 11:51 58.64680 -120.75145 35218 ft 476 kts 95°
2026-04-26 11:52 58.63533 -120.64788 35225 ft 476 kts 95°
2026-04-26 11:52 58.62145 -120.52361 35222 ft 476 kts 95°
2026-04-26 11:53 58.60748 -120.39956 35220 ft 475 kts 95°
2026-04-26 11:54 58.58633 -120.21369 35219 ft 475 kts 95°
2026-04-26 11:54 58.57219 -120.09110 35223 ft 474 kts 95°
2026-04-26 11:55 58.55777 -119.96724 35222 ft 473 kts 95°
2026-04-26 11:55 58.54337 -119.84458 35219 ft 472 kts 95°
2026-04-26 11:56 58.52895 -119.72285 35230 ft 471 kts 95°
2026-04-26 11:56 58.51437 -119.60062 35231 ft 471 kts 95°
2026-04-26 11:57 58.49969 -119.47863 35226 ft 471 kts 96°
2026-04-26 11:57 58.48276 -119.35689 35230 ft 477 kts 102°
2026-04-26 11:58 58.46078 -119.23700 35233 ft 478 kts 103°
2026-04-26 11:58 58.43854 -119.11722 35231 ft 479 kts 103°
2026-04-26 11:59 58.41642 -118.99746 35232 ft 479 kts 103°
2026-04-26 11:59 58.39440 -118.87810 35237 ft 479 kts 103°
2026-04-26 12:00 58.37215 -118.75828 35241 ft 480 kts 103°
2026-04-26 12:00 58.34980 -118.63854 35240 ft 479 kts 104°
2026-04-26 12:01 58.32734 -118.51897 35240 ft 479 kts 104°
2026-04-26 12:01 58.30480 -118.39980 35238 ft 478 kts 104°
2026-04-26 12:02 58.28215 -118.28086 35239 ft 477 kts 104°
2026-04-26 12:02 58.25951 -118.16243 35247 ft 477 kts 104°
2026-04-26 12:03 58.23677 -118.04435 35247 ft 476 kts 105°
2026-04-26 12:03 58.21405 -117.92719 35247 ft 476 kts 105°
2026-04-26 12:04 58.19104 -117.80920 35249 ft 476 kts 105°
2026-04-26 12:04 58.16798 -117.69159 35248 ft 476 kts 105°
2026-04-26 12:05 58.14496 -117.57488 35247 ft 476 kts 105°
2026-04-26 12:05 58.12166 -117.45755 35251 ft 476 kts 105°
2026-04-26 12:06 58.09826 -117.34025 35248 ft 476 kts 105°
2026-04-26 12:06 58.07474 -117.22315 35251 ft 476 kts 105°
2026-04-26 12:07 58.05113 -117.10632 35247 ft 476 kts 106°
2026-04-26 12:07 58.02741 -116.98971 35250 ft 476 kts 106°
2026-04-26 12:08 58.00360 -116.87309 35251 ft 476 kts 106°
2026-04-26 12:08 57.97968 -116.75659 35248 ft 476 kts 107°
2026-04-26 12:09 57.95576 -116.64098 35252 ft 476 kts 107°
2026-04-26 12:09 57.93157 -116.52478 35250 ft 477 kts 107°
2026-04-26 12:10 57.90729 -116.40868 35249 ft 476 kts 107°
2026-04-26 12:10 57.88292 -116.29280 35251 ft 476 kts 107°
2026-04-26 12:11 57.85859 -116.17774 35243 ft 476 kts 107°
2026-04-26 12:11 57.83404 -116.06230 35242 ft 476 kts 107°
2026-04-26 12:12 57.80942 -115.94722 35240 ft 476 kts 108°
2026-04-26 12:12 57.78466 -115.83219 35235 ft 475 kts 108°
2026-04-26 12:13 57.75985 -115.71748 35240 ft 475 kts 108°
2026-04-26 12:13 57.73490 -115.60275 35229 ft 475 kts 108°
2026-04-26 12:14 57.70990 -115.48838 35229 ft 475 kts 108°
2026-04-26 12:14 57.68494 -115.37494 35232 ft 475 kts 108°
2026-04-26 12:15 57.65968 -115.26081 35221 ft 476 kts 109°
2026-04-26 12:15 57.63431 -115.14655 35236 ft 477 kts 109°
2026-04-26 12:16 57.60876 -115.03218 35233 ft 478 kts 109°
2026-04-26 12:16 57.58298 -114.91757 35232 ft 479 kts 109°
2026-04-26 12:17 57.55726 -114.80378 35228 ft 479 kts 109°
2026-04-26 12:17 57.53130 -114.68958 35218 ft 478 kts 110°
2026-04-26 12:18 57.50529 -114.57574 35210 ft 477 kts 110°
2026-04-26 12:18 57.47927 -114.46246 35210 ft 475 kts 110°
2026-04-26 12:19 57.45326 -114.34976 35211 ft 474 kts 110°
2026-04-26 12:19 57.42720 -114.23747 35204 ft 473 kts 110°
2026-04-26 12:20 57.40121 -114.12614 35204 ft 472 kts 110°
2026-04-26 12:20 57.37501 -114.01429 35197 ft 472 kts 110°
2026-04-26 12:21 57.34871 -113.90291 35205 ft 472 kts 110°
2026-04-26 12:21 57.32240 -113.79172 35202 ft 472 kts 110°
2026-04-26 12:22 57.29596 -113.68074 35198 ft 472 kts 111°
2026-04-26 12:22 57.26938 -113.56976 35192 ft 472 kts 111°
2026-04-26 12:23 57.24275 -113.45899 35194 ft 472 kts 111°
2026-04-26 12:23 57.21609 -113.34885 35193 ft 473 kts 111°
2026-04-26 12:24 57.18914 -113.23804 35203 ft 474 kts 111°
2026-04-26 12:24 57.16198 -113.12686 35186 ft 475 kts 111°
2026-04-26 12:25 57.12100 -112.96018 35185 ft 476 kts 111°
2026-04-26 12:25 57.09372 -112.84992 35184 ft 476 kts 111°
2026-04-26 12:26 57.06616 -112.73922 35186 ft 477 kts 112°
2026-04-26 12:26 57.03840 -112.62813 35176 ft 476 kts 112°
2026-04-26 12:27 57.01068 -112.51768 35172 ft 476 kts 112°
2026-04-26 12:27 56.98307 -112.40839 35177 ft 475 kts 112°
2026-04-26 12:28 56.95526 -112.29873 35174 ft 474 kts 112°
2026-04-26 12:28 56.92731 -112.18920 35164 ft 474 kts 112°
2026-04-26 12:29 56.89931 -112.07992 35167 ft 474 kts 112°
2026-04-26 12:30 56.85710 -111.91621 35178 ft 475 kts 112°
2026-04-26 12:30 56.82882 -111.80709 35174 ft 475 kts 112°
2026-04-26 12:31 56.78629 -111.64416 35166 ft 476 kts 113°
2026-04-26 12:31 56.75765 -111.53503 35164 ft 476 kts 113°
2026-04-26 12:32 56.72900 -111.42639 35169 ft 476 kts 113°
2026-04-26 12:33 56.68590 -111.26397 35163 ft 476 kts 113°
2026-04-26 12:33 56.65703 -111.15572 35169 ft 476 kts 113°
2026-04-26 12:34 56.62487 -111.05010 35175 ft 478 kts 118°
2026-04-26 12:34 56.59021 -110.94703 35166 ft 478 kts 119°
2026-04-26 12:35 56.55556 -110.84402 35170 ft 478 kts 118°
2026-04-26 12:35 56.52121 -110.74171 35162 ft 479 kts 119°
2026-04-26 12:36 56.48657 -110.63878 35166 ft 478 kts 119°
2026-04-26 12:36 56.45188 -110.53603 35160 ft 479 kts 119°
2026-04-26 12:37 56.41710 -110.43342 35153 ft 479 kts 119°
2026-04-26 12:37 56.38220 -110.33101 35157 ft 479 kts 119°
2026-04-26 12:38 56.34713 -110.22861 35142 ft 480 kts 119°
2026-04-26 12:38 56.31194 -110.12623 35133 ft 480 kts 120°
2026-04-26 12:39 56.27685 -110.02455 35123 ft 481 kts 120°
2026-04-26 12:39 56.24134 -109.92208 35117 ft 482 kts 120°
2026-04-26 12:40 56.20569 -109.81967 35106 ft 483 kts 120°
2026-04-26 12:40 56.16995 -109.71744 35103 ft 483 kts 120°
2026-04-26 12:41 56.13435 -109.61600 35079 ft 483 kts 120°
2026-04-26 12:41 56.09850 -109.51424 35084 ft 482 kts 120°
2026-04-26 12:42 56.06871 -109.43002 35076 ft 481 kts 120°
2026-04-26 12:42 56.03280 -109.32901 35077 ft 480 kts 120°
2026-04-26 12:43 55.99694 -109.22842 35072 ft 479 kts 120°
2026-04-26 12:43 55.96099 -109.12805 35062 ft 479 kts 121°
2026-04-26 12:44 55.92497 -109.02790 35069 ft 480 kts 121°
2026-04-26 12:44 55.88884 -108.92782 35065 ft 480 kts 121°
2026-04-26 12:45 55.85280 -108.82840 35070 ft 481 kts 121°
2026-04-26 12:45 55.81640 -108.72842 35064 ft 482 kts 121°
2026-04-26 12:46 55.77987 -108.62850 35064 ft 482 kts 121°
2026-04-26 12:46 55.74324 -108.52875 35062 ft 482 kts 121°
2026-04-26 12:47 55.70662 -108.42925 35068 ft 481 kts 121°
2026-04-26 12:47 55.66985 -108.32997 35061 ft 481 kts 121°
2026-04-26 12:48 55.63307 -108.23108 35062 ft 480 kts 121°
2026-04-26 12:48 55.59649 -108.13298 35064 ft 479 kts 121°
2026-04-26 12:49 55.55966 -108.03466 35061 ft 479 kts 121°
2026-04-26 12:49 55.52276 -107.93649 35055 ft 479 kts 122°
2026-04-26 12:50 55.48602 -107.83920 35056 ft 479 kts 122°
2026-04-26 12:50 55.44900 -107.74149 35055 ft 479 kts 122°
2026-04-26 12:51 55.41196 -107.64418 35047 ft 478 kts 122°
2026-04-26 12:51 55.37476 -107.54687 35044 ft 479 kts 122°
2026-04-26 12:52 55.33746 -107.44961 35049 ft 480 kts 122°
2026-04-26 12:52 55.30006 -107.35248 35042 ft 481 kts 122°
2026-04-26 12:53 55.26247 -107.25525 35036 ft 482 kts 123°
2026-04-26 12:53 55.22495 -107.15858 35037 ft 483 kts 123°
2026-04-26 12:54 55.18702 -107.06124 35029 ft 483 kts 123°
2026-04-26 12:54 55.14903 -106.96416 35022 ft 483 kts 123°
2026-04-26 12:55 55.11097 -106.86728 35021 ft 483 kts 123°
2026-04-26 12:55 55.07285 -106.77061 35008 ft 483 kts 123°
2026-04-26 12:56 55.03469 -106.67413 35009 ft 483 kts 123°
2026-04-26 12:56 54.99667 -106.57849 35016 ft 483 kts 123°
2026-04-26 12:57 54.95831 -106.48243 35008 ft 482 kts 123°
2026-04-26 12:57 54.91993 -106.38660 34999 ft 483 kts 124°
2026-04-26 12:58 54.86216 -106.24296 35001 ft 483 kts 124°
2026-04-26 12:58 54.82355 -106.14751 35002 ft 484 kts 124°
2026-04-26 12:59 54.78477 -106.05200 34997 ft 484 kts 124°
2026-04-26 12:59 54.74616 -105.95728 34987 ft 485 kts 124°
2026-04-26 13:00 54.70721 -105.86201 34989 ft 485 kts 125°
2026-04-26 13:00 54.66812 -105.76680 34990 ft 486 kts 125°
2026-04-26 13:01 54.62889 -105.67162 34994 ft 486 kts 125°
2026-04-26 13:01 54.58959 -105.57664 34995 ft 487 kts 125°
2026-04-26 13:02 54.55009 -105.48155 34979 ft 487 kts 125°
2026-04-26 13:02 54.51057 -105.38683 34983 ft 487 kts 125°
2026-04-26 13:03 54.47095 -105.29215 34981 ft 487 kts 126°
2026-04-26 13:03 54.43154 -105.19833 34980 ft 487 kts 126°
2026-04-26 13:04 54.39173 -105.10393 34978 ft 487 kts 126°
2026-04-26 13:04 54.35191 -105.00981 34971 ft 488 kts 126°
2026-04-26 13:05 54.31198 -104.91593 34972 ft 487 kts 126°
2026-04-26 13:05 54.27203 -104.82228 34971 ft 487 kts 126°
2026-04-26 13:06 54.23192 -104.72871 34971 ft 487 kts 126°
2026-04-26 13:06 54.19212 -104.63599 34974 ft 487 kts 126°
2026-04-26 13:07 54.15187 -104.54262 34971 ft 488 kts 127°
2026-04-26 13:07 54.11141 -104.44914 34975 ft 488 kts 127°
2026-04-26 13:08 54.07121 -104.35668 34963 ft 489 kts 127°
2026-04-26 13:08 54.03055 -104.26352 34962 ft 490 kts 127°
2026-04-26 13:09 53.98987 -104.17062 34966 ft 490 kts 127°
2026-04-26 13:09 53.94911 -104.07786 34961 ft 490 kts 127°
2026-04-26 13:10 53.90817 -103.98501 34964 ft 491 kts 128°
2026-04-26 13:10 53.86712 -103.89229 34962 ft 491 kts 128°
2026-04-26 13:11 53.82607 -103.79989 34963 ft 491 kts 128°
2026-04-26 13:11 53.78519 -103.70820 34962 ft 491 kts 128°
2026-04-26 13:12 53.74393 -103.61608 34964 ft 491 kts 128°
2026-04-26 13:12 53.70255 -103.52399 34963 ft 492 kts 128°
2026-04-26 13:13 53.66110 -103.43205 34963 ft 493 kts 128°
2026-04-26 13:13 53.61948 -103.34013 34962 ft 493 kts 129°
2026-04-26 13:14 53.57778 -103.24830 34965 ft 494 kts 129°
2026-04-26 13:14 53.53599 -103.15662 34964 ft 494 kts 129°
2026-04-26 13:15 53.49400 -103.06490 34962 ft 495 kts 129°
2026-04-26 13:15 53.45902 -102.98874 34962 ft 495 kts 129°
2026-04-26 13:16 53.40996 -102.88227 34963 ft 496 kts 129°
2026-04-26 13:16 53.36771 -102.79092 34963 ft 496 kts 130°
2026-04-26 13:17 53.30417 -102.65417 34972 ft 496 kts 130°
2026-04-26 13:18 53.24045 -102.51780 34964 ft 496 kts 130°
2026-04-26 13:19 53.17683 -102.38237 34973 ft 495 kts 130°
2026-04-26 13:19 53.13424 -102.29210 34971 ft 496 kts 130°
2026-04-26 13:20 53.09150 -102.20191 34973 ft 496 kts 130°
2026-04-26 13:20 53.04866 -102.11181 34972 ft 496 kts 131°
2026-04-26 13:21 53.00601 -102.02235 34973 ft 497 kts 131°
2026-04-26 13:21 52.96295 -101.93238 34972 ft 498 kts 131°
2026-04-26 13:22 52.91978 -101.84249 34973 ft 499 kts 131°
2026-04-26 13:22 52.87639 -101.75248 34975 ft 499 kts 131°
2026-04-26 13:23 52.83297 -101.66274 34984 ft 499 kts 131°
2026-04-26 13:23 52.78944 -101.57317 34981 ft 500 kts 132°
2026-04-26 13:24 52.74584 -101.48371 34983 ft 500 kts 132°
2026-04-26 13:24 52.70241 -101.39483 34985 ft 501 kts 132°
2026-04-26 13:25 52.65857 -101.30549 34979 ft 501 kts 132°
2026-04-26 13:25 52.61458 -101.21612 34987 ft 501 kts 132°
2026-04-26 13:26 52.57053 -101.12705 34987 ft 501 kts 132°
2026-04-26 13:26 52.52646 -101.03821 34991 ft 501 kts 132°
2026-04-26 13:27 52.48263 -100.95011 34992 ft 500 kts 133°
2026-04-26 13:27 52.43859 -100.86193 34998 ft 499 kts 133°
2026-04-26 13:28 52.39451 -100.77399 34999 ft 499 kts 133°
2026-04-26 13:28 52.35030 -100.68607 35000 ft 500 kts 133°
2026-04-26 13:29 52.30607 -100.59847 34996 ft 500 kts 133°
2026-04-26 13:29 52.26920 -100.52560 35003 ft 499 kts 133°
2026-04-26 13:30 52.22484 -100.43827 35003 ft 500 kts 133°
2026-04-26 13:30 52.18038 -100.35105 35009 ft 500 kts 134°
2026-04-26 13:31 52.13580 -100.26386 35007 ft 501 kts 134°
2026-04-26 13:31 52.09138 -100.17725 35007 ft 502 kts 134°
2026-04-26 13:32 52.04654 -100.09014 35007 ft 502 kts 134°
2026-04-26 13:32 52.00155 -100.00301 35019 ft 502 kts 134°
2026-04-26 13:33 51.95732 -99.91521 35023 ft 503 kts 133°
2026-04-26 13:33 51.91378 -99.82658 35028 ft 503 kts 132°
2026-04-26 13:34 51.87016 -99.73808 35028 ft 503 kts 133°
2026-04-26 13:34 51.82622 -99.64979 35028 ft 503 kts 133°
2026-04-26 13:35 51.78252 -99.56243 35029 ft 503 kts 133°
2026-04-26 13:35 51.73850 -99.47477 35035 ft 502 kts 133°
2026-04-26 13:36 51.69447 -99.38735 35038 ft 502 kts 133°
2026-04-26 13:36 51.65037 -99.30017 35036 ft 501 kts 133°
2026-04-26 13:37 51.60645 -99.21355 35039 ft 501 kts 133°
2026-04-26 13:37 51.56231 -99.12683 35037 ft 501 kts 133°
2026-04-26 13:38 51.51809 -99.04023 35036 ft 500 kts 133°
2026-04-26 13:38 51.47390 -98.95396 35038 ft 500 kts 133°
2026-04-26 13:39 51.42991 -98.86840 35035 ft 500 kts 133°
2026-04-26 13:39 51.38553 -98.78231 35037 ft 500 kts 133°
2026-04-26 13:40 51.34124 -98.69674 35046 ft 499 kts 133°
2026-04-26 13:40 51.29683 -98.61129 35048 ft 499 kts 133°
2026-04-26 13:41 51.25263 -98.52643 35046 ft 499 kts 133°
2026-04-26 13:41 51.20817 -98.44135 35047 ft 499 kts 134°
2026-04-26 13:42 51.16367 -98.35650 35047 ft 499 kts 134°
2026-04-26 13:42 51.11911 -98.27177 35054 ft 499 kts 134°
2026-04-26 13:43 51.07444 -98.18719 35056 ft 499 kts 134°
2026-04-26 13:43 51.02999 -98.10332 35059 ft 498 kts 134°
2026-04-26 13:44 50.98530 -98.01919 35071 ft 499 kts 134°
2026-04-26 13:44 50.94047 -97.93512 35075 ft 499 kts 134°
2026-04-26 13:45 50.89544 -97.85090 35087 ft 499 kts 134°
2026-04-26 13:45 50.85037 -97.76693 35098 ft 499 kts 134°
2026-04-26 13:46 50.80537 -97.68331 35103 ft 499 kts 134°
2026-04-26 13:46 50.76050 -97.60029 35100 ft 500 kts 134°
2026-04-26 13:47 50.71528 -97.51689 35104 ft 500 kts 134°
2026-04-26 13:47 50.66986 -97.43338 35112 ft 501 kts 134°
2026-04-26 13:48 50.62445 -97.35004 35110 ft 501 kts 134°
2026-04-26 13:48 50.57894 -97.26680 35114 ft 501 kts 134°
2026-04-26 13:49 50.53360 -97.18424 35108 ft 500 kts 134°
2026-04-26 13:49 50.48808 -97.10163 35111 ft 499 kts 135°
2026-04-26 13:50 50.44259 -97.01930 35113 ft 499 kts 135°
2026-04-26 13:50 50.39714 -96.93727 35121 ft 498 kts 135°
2026-04-26 13:51 50.35155 -96.85531 35123 ft 499 kts 135°
2026-04-26 13:51 50.30589 -96.77342 35117 ft 498 kts 135°
2026-04-26 13:52 50.26015 -96.69173 35121 ft 498 kts 135°
2026-04-26 13:52 50.21443 -96.61032 35123 ft 498 kts 135°
2026-04-26 13:53 50.16900 -96.52961 35116 ft 498 kts 135°
2026-04-26 13:53 50.12309 -96.44833 35124 ft 498 kts 135°
2026-04-26 13:54 50.07724 -96.36744 35121 ft 498 kts 135°
2026-04-26 13:54 50.03136 -96.28673 35121 ft 498 kts 135°
2026-04-26 13:55 49.97021 -96.17954 35119 ft 498 kts 136°
2026-04-26 13:56 49.89367 -96.04600 35118 ft 497 kts 136°
2026-04-26 13:56 49.84759 -95.96596 35125 ft 497 kts 136°
2026-04-26 13:57 49.80152 -95.88616 35130 ft 497 kts 136°
2026-04-26 13:57 49.75533 -95.80644 35126 ft 497 kts 136°
2026-04-26 13:58 49.70908 -95.72682 35133 ft 497 kts 136°
2026-04-26 13:58 49.66277 -95.64735 35134 ft 498 kts 136°
2026-04-26 13:59 49.61642 -95.56805 35140 ft 498 kts 136°
2026-04-26 13:59 49.57021 -95.48927 35138 ft 498 kts 136°
2026-04-26 14:00 49.47701 -95.33102 35141 ft 498 kts 137°
2026-04-26 14:01 49.43035 -95.25219 35146 ft 498 kts 137°
2026-04-26 14:01 49.38360 -95.17340 35148 ft 498 kts 137°
2026-04-26 14:02 49.33686 -95.09490 35148 ft 498 kts 137°
2026-04-26 14:02 49.29033 -95.01695 35148 ft 498 kts 137°
2026-04-26 14:03 49.24337 -94.93857 35147 ft 499 kts 137°
2026-04-26 14:03 49.19647 -94.86051 35148 ft 499 kts 137°
2026-04-26 14:04 49.14939 -94.78238 35149 ft 498 kts 137°
2026-04-26 14:04 49.10262 -94.70496 35151 ft 499 kts 137°
2026-04-26 14:05 49.05549 -94.62723 35147 ft 499 kts 137°
2026-04-26 14:05 49.00821 -94.54943 35147 ft 499 kts 138°
2026-04-26 14:06 48.96354 -94.46818 35140 ft 504 kts 129°
2026-04-26 14:06 48.92731 -94.37620 35159 ft 508 kts 124°
2026-04-26 14:07 48.89219 -94.28297 35160 ft 508 kts 124°
2026-04-26 14:07 48.85670 -94.19000 35157 ft 509 kts 125°
2026-04-26 14:08 48.82094 -94.09740 35158 ft 509 kts 125°
2026-04-26 14:08 48.78520 -94.00541 35157 ft 509 kts 125°
2026-04-26 14:09 48.74920 -93.91302 35157 ft 509 kts 126°
2026-04-26 14:09 48.71311 -93.82069 35161 ft 509 kts 126°
2026-04-26 14:10 48.67688 -93.72832 35152 ft 509 kts 126°
2026-04-26 14:10 48.64066 -93.63627 35157 ft 509 kts 126°
2026-04-26 14:11 48.58623 -93.49857 35153 ft 508 kts 126°
2026-04-26 14:11 48.54987 -93.40703 35160 ft 509 kts 126°
2026-04-26 14:12 48.51366 -93.31607 35154 ft 508 kts 126°
2026-04-26 14:12 48.47713 -93.22465 35159 ft 508 kts 126°
2026-04-26 14:13 48.42233 -93.08811 35158 ft 507 kts 127°
2026-04-26 14:14 48.38575 -92.99738 35162 ft 507 kts 127°
2026-04-26 14:14 48.34910 -92.90678 35162 ft 506 kts 127°
2026-04-26 14:15 48.31244 -92.81645 35178 ft 506 kts 127°
2026-04-26 14:15 48.28185 -92.74135 35202 ft 507 kts 127°
2026-04-26 14:16 48.24508 -92.65124 35209 ft 507 kts 128°
2026-04-26 14:16 48.20813 -92.56105 35215 ft 507 kts 128°
2026-04-26 14:17 48.17106 -92.47085 35224 ft 508 kts 128°
2026-04-26 14:17 48.13393 -92.38086 35216 ft 508 kts 128°
2026-04-26 14:18 48.09663 -92.29076 35213 ft 509 kts 129°
2026-04-26 14:18 48.05943 -92.20116 35210 ft 510 kts 129°
2026-04-26 14:19 48.02192 -92.11115 35199 ft 510 kts 129°
2026-04-26 14:19 47.98435 -92.02124 35195 ft 510 kts 129°
2026-04-26 14:20 47.94669 -91.93148 35191 ft 510 kts 129°
2026-04-26 14:20 47.90928 -91.84256 35185 ft 509 kts 129°
2026-04-26 14:21 47.87149 -91.75299 35183 ft 509 kts 129°
2026-04-26 14:21 47.83366 -91.66368 35184 ft 509 kts 129°
2026-04-26 14:22 47.79587 -91.57478 35183 ft 509 kts 129°
2026-04-26 14:22 47.75798 -91.48588 35183 ft 509 kts 129°
2026-04-26 14:23 47.72028 -91.39772 35186 ft 509 kts 129°
2026-04-26 14:23 47.68218 -91.30897 35186 ft 510 kts 129°
2026-04-26 14:24 47.64399 -91.22030 35184 ft 510 kts 129°
2026-04-26 14:24 47.60571 -91.13170 35187 ft 510 kts 129°
2026-04-26 14:25 47.56729 -91.04301 35186 ft 511 kts 129°
2026-04-26 14:25 47.52906 -90.95506 35181 ft 511 kts 129°
2026-04-26 14:26 47.49060 -90.86689 35185 ft 510 kts 129°
2026-04-26 14:26 47.45205 -90.77876 35190 ft 510 kts 129°
2026-04-26 14:27 47.41347 -90.69082 35188 ft 510 kts 129°
2026-04-26 14:27 47.37488 -90.60322 35184 ft 509 kts 129°
2026-04-26 14:28 47.33614 -90.51553 35192 ft 509 kts 129°
2026-04-26 14:28 47.29744 -90.42821 35196 ft 508 kts 129°
2026-04-26 14:29 47.25869 -90.34105 35192 ft 508 kts 129°
2026-04-26 14:29 47.21993 -90.25410 35189 ft 508 kts 129°
2026-04-26 14:30 47.18107 -90.16726 35195 ft 508 kts 129°
2026-04-26 14:30 47.14218 -90.08067 35192 ft 508 kts 129°
2026-04-26 14:31 47.10331 -89.99433 35187 ft 509 kts 129°
2026-04-26 14:31 47.06415 -89.90760 35186 ft 510 kts 129°
2026-04-26 14:32 47.02492 -89.82100 35179 ft 510 kts 129°
2026-04-26 14:32 46.98558 -89.73443 35175 ft 511 kts 129°
2026-04-26 14:33 46.94609 -89.64784 35175 ft 510 kts 129°
2026-04-26 14:33 46.90656 -89.56138 35175 ft 511 kts 129°
2026-04-26 14:34 46.86693 -89.47504 35179 ft 512 kts 129°
2026-04-26 14:34 46.82719 -89.38866 35173 ft 513 kts 129°
2026-04-26 14:35 46.78750 -89.30268 35169 ft 513 kts 129°
2026-04-26 14:35 46.74753 -89.21641 35167 ft 513 kts 129°
2026-04-26 14:36 46.70752 -89.13022 35157 ft 513 kts 129°
2026-04-26 14:36 46.66752 -89.04434 35163 ft 511 kts 129°
2026-04-26 14:37 46.62751 -88.95876 35165 ft 511 kts 129°
2026-04-26 14:37 46.58738 -88.87313 35167 ft 511 kts 129°
2026-04-26 14:38 46.54726 -88.78783 35166 ft 511 kts 129°
2026-04-26 14:38 46.50732 -88.70314 35168 ft 512 kts 129°
2026-04-26 14:39 46.46693 -88.61780 35165 ft 512 kts 129°
2026-04-26 14:39 46.42657 -88.53274 35163 ft 511 kts 128°
2026-04-26 14:40 46.38644 -88.44843 35168 ft 512 kts 128°
2026-04-26 14:40 46.34597 -88.36368 35167 ft 512 kts 128°
2026-04-26 14:41 46.30541 -88.27900 35176 ft 512 kts 128°
2026-04-26 14:41 46.26477 -88.19438 35175 ft 512 kts 128°
2026-04-26 14:42 46.22402 -88.10979 35177 ft 513 kts 128°
2026-04-26 14:42 46.18317 -88.02524 35182 ft 514 kts 128°
2026-04-26 14:43 46.14218 -87.94067 35185 ft 514 kts 128°
2026-04-26 14:43 46.10138 -87.85671 35184 ft 514 kts 128°
2026-04-26 14:44 46.06026 -87.77244 35184 ft 514 kts 128°
2026-04-26 14:44 46.01916 -87.68837 35191 ft 513 kts 128°
2026-04-26 14:45 45.97810 -87.60465 35189 ft 512 kts 128°
2026-04-26 14:45 45.93688 -87.52089 35199 ft 512 kts 128°
2026-04-26 14:46 45.89593 -87.43791 35199 ft 512 kts 128°
2026-04-26 14:46 45.85463 -87.35446 35205 ft 512 kts 128°
2026-04-26 14:47 45.81331 -87.27118 35212 ft 511 kts 128°
2026-04-26 14:47 45.77203 -87.18822 35219 ft 511 kts 128°
2026-04-26 14:48 45.73073 -87.10527 35223 ft 511 kts 127°
2026-04-26 14:48 45.69526 -87.01703 35225 ft 513 kts 119°
2026-04-26 14:49 45.66293 -86.92693 35219 ft 512 kts 119°
2026-04-26 14:49 45.63021 -86.83656 35222 ft 512 kts 120°
2026-04-26 14:50 45.59719 -86.74658 35223 ft 511 kts 120°
2026-04-26 14:50 45.56404 -86.65682 35216 ft 511 kts 120°
2026-04-26 14:51 45.53083 -86.56722 35211 ft 510 kts 120°
2026-04-26 14:51 45.49762 -86.47789 35211 ft 510 kts 120°
2026-04-26 14:52 45.46434 -86.38858 35210 ft 509 kts 120°
2026-04-26 14:52 45.43122 -86.30011 35214 ft 509 kts 120°
2026-04-26 14:53 45.39787 -86.21119 35211 ft 509 kts 120°
2026-04-26 14:53 45.36448 -86.12246 35213 ft 509 kts 120°
2026-04-26 14:54 45.33115 -86.03421 35212 ft 509 kts 120°
2026-04-26 14:54 45.29752 -85.94546 35217 ft 509 kts 120°
2026-04-26 14:55 45.26392 -85.85712 35211 ft 509 kts 120°
2026-04-26 14:55 45.23025 -85.76875 35210 ft 508 kts 120°
2026-04-26 14:56 45.19655 -85.68060 35213 ft 508 kts 120°
2026-04-26 14:56 45.16281 -85.59276 35220 ft 507 kts 120°
2026-04-26 14:57 45.12927 -85.50564 35220 ft 506 kts 120°
2026-04-26 14:57 45.09551 -85.41824 35223 ft 506 kts 120°
2026-04-26 14:58 45.06167 -85.33088 35221 ft 506 kts 120°
2026-04-26 14:58 45.02769 -85.24351 35229 ft 507 kts 120°
2026-04-26 14:59 44.99364 -85.15618 35235 ft 507 kts 120°
2026-04-26 14:59 44.95948 -85.06886 35234 ft 508 kts 120°
2026-04-26 15:00 44.92529 -84.98165 35230 ft 508 kts 120°
2026-04-26 15:00 44.89100 -84.89453 35223 ft 508 kts 120°
2026-04-26 15:01 44.85685 -84.80802 35221 ft 508 kts 120°
2026-04-26 15:01 44.82220 -84.72057 35222 ft 507 kts 120°
2026-04-26 15:02 44.78794 -84.63435 35219 ft 507 kts 120°
2026-04-26 15:02 44.75346 -84.54781 35221 ft 507 kts 120°
2026-04-26 15:03 44.72474 -84.47591 35220 ft 506 kts 120°
2026-04-26 15:03 44.69015 -84.38956 35228 ft 506 kts 120°
2026-04-26 15:04 44.64996 -84.28962 35228 ft 505 kts 120°
2026-04-26 15:04 44.62095 -84.21774 35233 ft 505 kts 120°
2026-04-26 15:05 44.58625 -84.13197 35231 ft 505 kts 120°
2026-04-26 15:05 44.55150 -84.04625 35239 ft 505 kts 120°
2026-04-26 15:06 44.51693 -83.96129 35248 ft 505 kts 120°
2026-04-26 15:06 44.48197 -83.87567 35247 ft 506 kts 120°
2026-04-26 15:07 44.42938 -83.74728 35254 ft 506 kts 120°
2026-04-26 15:07 44.39423 -83.66182 35258 ft 506 kts 120°
2026-04-26 15:08 44.35900 -83.57636 35269 ft 507 kts 120°
2026-04-26 15:08 44.32394 -83.49162 35273 ft 507 kts 120°
2026-04-26 15:09 44.28861 -83.40649 35270 ft 507 kts 120°
2026-04-26 15:09 44.25321 -83.32145 35253 ft 507 kts 120°
2026-04-26 15:10 44.22348 -83.25019 35266 ft 507 kts 120°
2026-04-26 15:10 44.18208 -83.15130 35269 ft 507 kts 120°
2026-04-26 15:11 44.14642 -83.06638 35253 ft 507 kts 120°
2026-04-26 15:11 44.11096 -82.98226 35260 ft 507 kts 120°
2026-04-26 15:12 44.07525 -82.89764 35253 ft 507 kts 120°
2026-04-26 15:12 44.03941 -82.81305 35250 ft 508 kts 120°
2026-04-26 15:13 44.00343 -82.72837 35252 ft 508 kts 120°
2026-04-26 15:13 43.96744 -82.64391 35097 ft 506 kts 120°
2026-04-26 15:14 43.94964 -82.60222 34281 ft 511 kts 120°
2026-04-26 15:14 43.93148 -82.55980 33560 ft 510 kts 120°
2026-04-26 15:14 43.91344 -82.51770 33051 ft 504 kts 120°
2026-04-26 15:14 43.89557 -82.47603 32519 ft 499 kts 120°
2026-04-26 15:15 43.87791 -82.43493 31999 ft 494 kts 120°
2026-04-26 15:15 43.86040 -82.39423 31485 ft 490 kts 120°
2026-04-26 15:15 43.84304 -82.35393 30975 ft 485 kts 120°
2026-04-26 15:15 43.82580 -82.31398 30467 ft 481 kts 120°
2026-04-26 15:16 43.80872 -82.27444 29963 ft 476 kts 120°
2026-04-26 15:16 43.79177 -82.23522 29454 ft 472 kts 120°
2026-04-26 15:16 43.77495 -82.19636 28945 ft 468 kts 120°
2026-04-26 15:16 43.75848 -82.15840 28512 ft 463 kts 120°
2026-04-26 15:17 43.74201 -82.12051 28079 ft 458 kts 120°
2026-04-26 15:17 43.73107 -82.09538 27756 ft 456 kts 121°
2026-04-26 15:17 43.70926 -82.04528 27104 ft 451 kts 121°
2026-04-26 15:17 43.69312 -82.00826 26626 ft 448 kts 121°
2026-04-26 15:18 43.67704 -81.97141 26145 ft 446 kts 121°
2026-04-26 15:18 43.66107 -81.93488 25670 ft 443 kts 121°
2026-04-26 15:18 43.64517 -81.89853 25199 ft 440 kts 121°
2026-04-26 15:18 43.62938 -81.86251 24730 ft 438 kts 121°
2026-04-26 15:19 43.61362 -81.82664 24261 ft 436 kts 121°
2026-04-26 15:19 43.59877 -81.79080 23731 ft 434 kts 116°
2026-04-26 15:19 43.58689 -81.75246 23109 ft 435 kts 107°
2026-04-26 15:19 43.57807 -81.71257 22472 ft 436 kts 104°
2026-04-26 15:20 43.56953 -81.67240 21842 ft 437 kts 104°
2026-04-26 15:20 43.56092 -81.63210 21095 ft 441 kts 104°
2026-04-26 15:20 43.55214 -81.59137 20383 ft 443 kts 104°
2026-04-26 15:20 43.54325 -81.55055 19688 ft 444 kts 105°
2026-04-26 15:21 43.53428 -81.50979 19015 ft 438 kts 105°
2026-04-26 15:21 43.52548 -81.47003 18013 ft 431 kts 105°
2026-04-26 15:21 43.51676 -81.43076 16919 ft 427 kts 104°
2026-04-26 15:21 43.50813 -81.39196 16028 ft 418 kts 104°
2026-04-26 15:22 43.49973 -81.35429 15315 ft 406 kts 104°
2026-04-26 15:22 43.49157 -81.31769 14897 ft 400 kts 104°
2026-04-26 15:22 43.48348 -81.28148 14636 ft 390 kts 104°
2026-04-26 15:22 43.47557 -81.24619 14381 ft 380 kts 104°
2026-04-26 15:23 43.46785 -81.21180 14055 ft 372 kts 104°
2026-04-26 15:23 43.46026 -81.17800 13654 ft 368 kts 104°
2026-04-26 15:23 43.45273 -81.14448 13216 ft 365 kts 104°
2026-04-26 15:23 43.44528 -81.11131 12775 ft 361 kts 104°
2026-04-26 15:24 43.43787 -81.07839 12330 ft 358 kts 104°
2026-04-26 15:24 43.43052 -81.04583 11910 ft 355 kts 104°
2026-04-26 15:24 43.42325 -81.01364 11468 ft 351 kts 104°
2026-04-26 15:24 43.41603 -80.98175 11018 ft 348 kts 104°
2026-04-26 15:25 43.40885 -80.95011 10568 ft 345 kts 104°
2026-04-26 15:25 43.40412 -80.92933 10282 ft 343 kts 104°
2026-04-26 15:25 43.39476 -80.88831 10074 ft 327 kts 104°
2026-04-26 15:25 43.38820 -80.85951 9975 ft 313 kts 104°
2026-04-26 15:26 43.38173 -80.83119 9872 ft 300 kts 104°
2026-04-26 15:26 43.37571 -80.80475 9768 ft 288 kts 104°
2026-04-26 15:26 43.36977 -80.77888 9563 ft 280 kts 104°
2026-04-26 15:26 43.36399 -80.75356 9280 ft 275 kts 104°
2026-04-26 15:27 43.35829 -80.72850 8928 ft 272 kts 105°
2026-04-26 15:27 43.35260 -80.70368 8546 ft 270 kts 105°
2026-04-26 15:27 43.34703 -80.67942 8189 ft 269 kts 105°
2026-04-26 15:27 43.34142 -80.65503 7838 ft 266 kts 105°
2026-04-26 15:28 43.33592 -80.63114 7599 ft 259 kts 105°
2026-04-26 15:28 43.33057 -80.60788 7328 ft 252 kts 105°
2026-04-26 15:28 43.32532 -80.58506 6962 ft 249 kts 105°
2026-04-26 15:28 43.32008 -80.56240 6582 ft 248 kts 105°
2026-04-26 15:29 43.31488 -80.53998 6216 ft 246 kts 105°
2026-04-26 15:29 43.30974 -80.51772 5888 ft 243 kts 105°
2026-04-26 15:29 43.29955 -80.47368 5145 ft 241 kts 106°
2026-04-26 15:30 43.28959 -80.43074 4662 ft 229 kts 106°
2026-04-26 15:30 43.28480 -80.41016 4525 ft 225 kts 106°
2026-04-26 15:30 43.28001 -80.38957 4405 ft 227 kts 106°
2026-04-26 15:31 43.27519 -80.36889 4289 ft 228 kts 106°
2026-04-26 15:31 43.26562 -80.32776 4063 ft 228 kts 106°
2026-04-26 15:31 43.26077 -80.30698 3912 ft 228 kts 106°
2026-04-26 15:32 43.25286 -80.27329 3726 ft 217 kts 106°
2026-04-26 15:32 43.24669 -80.24695 3617 ft 214 kts 106°
2026-04-26 15:32 43.24234 -80.22770 3505 ft 209 kts 105°
2026-04-26 15:33 43.23822 -80.20917 3506 ft 201 kts 105°
2026-04-26 15:33 43.23436 -80.19104 3424 ft 194 kts 105°
2026-04-26 15:33 43.23053 -80.17367 3315 ft 187 kts 105°
2026-04-26 15:33 43.22674 -80.15679 3273 ft 184 kts 106°
2026-04-26 15:34 43.22296 -80.14008 3193 ft 184 kts 106°
2026-04-26 15:34 43.21917 -80.12329 3126 ft 185 kts 106°
2026-04-26 15:34 43.21541 -80.10663 3050 ft 179 kts 106°
2026-04-26 15:34 43.21179 -80.09081 2913 ft 170 kts 106°
2026-04-26 15:35 43.20840 -80.07585 2694 ft 162 kts 105°
2026-04-26 15:35 43.20510 -80.06119 2510 ft 161 kts 105°
2026-04-26 15:35 43.20188 -80.04702 2294 ft 149 kts 104°
2026-04-26 15:35 43.19887 -80.03370 2104 ft 145 kts 103°
2026-04-26 15:36 43.19590 -80.02059 1892 ft 143 kts 103°
2026-04-26 15:36 43.19291 -80.00767 1718 ft 142 kts 103°
2026-04-26 15:36 43.18992 -79.99466 1518 ft 143 kts 103°
2026-04-26 15:36 43.18705 -79.98160 1339 ft 143 kts 103°
2026-04-26 15:37 43.18413 -79.96853 1115 ft 143 kts 104°
2026-04-26 15:37 43.18114 -79.95550 933 ft 143 kts 104°
2026-04-26 15:37 43.17818 -79.94243 799 ft 143 kts 104°
2026-04-26 15:37 43.17550 -79.93054 786 ft 111 kts 108°
2026-04-26 15:38 43.17375 -79.92281 782 ft 59 kts 107°
2026-04-26 15:38 43.17306 -79.91976 776 ft 21 kts 107°
2026-04-26 15:38 43.17262 -79.91846 778 ft 10 kts 141°
2026-04-26 15:38 43.17225 -79.91775 778 ft 10 kts 81°
2026-04-26 15:39 43.17272 -79.91791 778 ft 10 kts 285°
2026-04-26 15:39 43.17287 -79.91884 778 ft 10 kts 283°
2026-04-26 15:39 43.17306 -79.91989 776 ft 13 kts 286°
2026-04-26 15:39 43.17326 -79.92074 777 ft 15 kts 287°
2026-04-26 15:40 43.17367 -79.92255 782 ft 15 kts 288°
2026-04-26 15:40 43.17377 -79.92363 783 ft 11 kts 249°
2026-04-26 15:40 43.17332 -79.92445 782 ft 11 kts 228°
2026-04-26 15:40 43.17277 -79.92530 781 ft 12 kts 228°
2026-04-26 15:41 43.17221 -79.92616 781 ft 12 kts 228°
2026-04-26 15:41 43.17161 -79.92707 779 ft 13 kts 229°
2026-04-26 15:41 43.17106 -79.92793 777 ft 10 kts 229°
2026-04-26 15:41 43.17059 -79.92841 778 ft 9 kts 186°
2026-04-26 15:42 43.17001 -79.92814 778 ft 9 kts 150°
2026-04-26 15:42 43.16948 -79.92771 779 ft 9 kts 150°
2026-04-26 15:42 43.16895 -79.92729 780 ft 9 kts 150°
2026-04-26 15:42 43.16842 -79.92688 781 ft 9 kts 150°
2026-04-26 15:43 43.16789 -79.92646 781 ft 9 kts 150°
2026-04-26 15:43 43.16735 -79.92604 781 ft 9 kts 150°
2026-04-26 15:43 43.16629 -79.92520 781 ft 9 kts 149°
2026-04-26 15:44 43.16570 -79.92504 781 ft 9 kts 183°
2026-04-26 15:44 43.16519 -79.92613 781 ft 9 kts 287°
2026-04-26 15:44 43.16537 -79.92693 781 ft 9 kts 287°
2026-04-26 15:45 43.16617 -79.92752 781 ft 7 kts 15°
2026-04-26 15:45 43.16634 -79.92745 781 ft 2 kts 16°
2026-04-26 15:46 43.16637 -79.92744 781 ft 0 kts 16°